Regional Weather Roundup
Issued by NWS

Home | Current Version | Previous Version | Text Only | Print | Product List | Glossary Off
Versions: 1 2 3 4 5 6 7 8 9 10 11 12 13 14 15 16 17 18 19 20 21 22 23 24 25 26 27 28 29 30 31 32 33 34 35 36 37 38 39 40 41 42 43 44 45 46 47 48 49 50

000
ASUS44 KMEG 282000
RWRTN
TENNESSEE HOURLY STATE WEATHER ROUNDUP
NATIONAL WEATHER SERVICE MEMPHIS TN
300 PM CDT TUE JUL 28 2015

TNZ002-004-019-021-049-052-054-088>092-282100-
WEST TENNESSEE

CITY           SKY/WX    TMP DP  RH WIND       PRES   REMARKS
MEMPHIS INTL   MOSUNNY   96  73  47 SW3       29.98F HX 105
NWS MEMPHIS      N/A     95 N/A N/A MISG        N/A
JACKSON        MOSUNNY   96  74  48 W9        29.98F HX 107
DYERSBURG        N/A    N/A N/A N/A MISG        N/A
PARIS          SUNNY     91  75  59 VRB5      29.98F HX 102
LEXINGTON      MOSUNNY   93  73  52 W6        29.97F HX 102
$$

TNZ008-025-027-028-033-062-065-066-282100-
NORTH MIDDLE TENNESSEE

CITY           SKY/WX    TMP DP  RH WIND       PRES   REMARKS
NASHVILLE      PTSUNNY   95  72  47 NW8       29.97F HX 103
CLARKSVILLE    PTSUNNY   92  75  57 W13       29.96F HX 103
CROSSVILLE     SUNNY     89  71  55 W7        30.06S HX  95
$$

TNZ061-075-076-078-094-096-097-282100-
SOUTH MIDDLE TENNESSEE

CITY           SKY/WX    TMP DP  RH WIND       PRES   REMARKS
FAYETTEVILLE     N/A     91  70  49 W9        30.00F HX  97
TULLAHOMA      PTSUNNY   84  72  65 NE9       30.04R
WINCHESTER     SUNNY     91  72  52 N7        30.00F HX  98
MCMINNVILLE    SUNNY     90  79  70 NW8       30.02S HX 105
SHELBYVILLE    MOSUNNY   84  73  70 SE10      30.02R HX  91
$$

TNZ017-018-042-046-047-282100-
NORTHEAST TENNESSEE

CITY           SKY/WX    TMP DP  RH WIND       PRES   REMARKS
TRI CITIES     MOSUNNY   92  67  43 CALM      30.00F HX  95
ELIZABETHTON   CLEAR     90  68  48 CALM      30.00F HX  93
$$

TNZ012-013-036-069-073-074-282100-
CENTRAL EAST TENNESSEE

CITY           SKY/WX    TMP DP  RH WIND       PRES   REMARKS
KNOXVILLE      PTSUNNY   90  71  53 W10       29.97F HX  96
OAK RIDGE      MOSUNNY   83  72  69 CALM      30.00F
GATLINBURG       N/A     93  72  49 NW9       29.97S HX 100
$$

TNZ083-085-099-282100-
SOUTHEAST TENNESSEE

CITY           SKY/WX    TMP DP  RH WIND       PRES   REMARKS
CHATTANOOGA    TSTM      84  70  62 NW10G23   30.00R
$$

SKY/WX REPORTED AS FAIR MEANS FEW OR NO CLOUDS BELOW
12 THOUSAND FEET.




USA.gov is the U.S. government's official web portal to all federal, state and local government web resources and services.